Location: Unspecified
(48.8582°N, 2.2947°E)
Time: 19:00:59
(UTC+02:00)

Daily predictions for brighter satellites

Satellite Brightness Start Highest point End
(mag) Time Altitude Azimuth Time Altitude Azimuth Time Altitude Azimuth
Nadezhda 2 Rocket 4.5 22:26:16 10° S 22:32:22 81° E 22:38:30 10° N
Cosmos 1980 4.0 22:27:35 10° NNW 22:33:11 59° ENE 22:38:45 10° SE
Nimbus 7 Rocket 4.4 22:29:24 10° NNE 22:35:18 77° ESE 22:41:09 10° SSW
Cosmos 1726 2.2 22:31:38 10° N 22:35:26 76° E 22:39:13 10° SSE
SL-08 RB Rocket 4.3 22:33:17 10° SE 22:37:30 42° ENE 22:41:47 10° N
Lacrosse 4 Rocket 2.9 22:34:39 10° NNW 22:38:33 30° NE 22:42:30 10° ESE
H-2A R/B 3.2 22:33:49 10° SE 22:38:34 32° ENE 22:43:23 10° N
ATLAS 2AS CENTAUR R/B 3.8 22:33:10 10° SSE 22:39:27 29° ESE 22:46:04 10° NE
Cosmos 1898 Rocket 3.6 22:35:09 10° S 22:40:12 55° ESE 22:45:19 10° NNE
Terra 3.1 22:39:34 10° ESE 22:43:36 28° ENE 22:47:39 10° N
Cosmos 2151 3.8 22:39:57 10° SSW 22:44:04 55° WNW 22:48:14 10° N
Cosmos 2058 2.9 22:40:09 10° S 22:44:15 86° WNW 22:48:23 10° N
ATLAS 3B R/B 3.2 22:37:19 10° NW 22:44:24 56° NE 22:51:00 10° ESE
Cosmos 2237 Rocket 2.4 22:39:18 10° NNW 22:45:00 66° ENE 22:50:40 10° SE
Aureole 3 4.3 22:38:59 10° SSW 22:45:01 76° W 22:49:45 10° N
MetOp-B 4.3 22:39:41 10° SSE 22:45:03 84° WSW 22:50:27 10° NNW
Meteor 1-4 Rocket 2.6 22:41:21 10° N 22:45:08 74° ENE 22:48:48 10° SSE
Cosmos 2219 3.4 22:39:49 10° SSW 22:45:35 83° WNW 22:51:22 10° NNE
SPOT 1/Viking Rocket 3.6 22:45:53 10° SSE 22:51:01 81° ENE 22:56:14 10° NNW
Cosmos 2360 Rocket 4.3 22:49:17 10° NW 22:53:30 22° W 22:57:43 10° SSW
Cosmos 2082 4.4 22:50:13 10° S 22:55:22 36° ESE 23:00:32 10° NE
Cosmos 2150 Rocket 4.1 22:50:18 10° SSW 22:55:45 76° ESE 23:01:14 10° NNE
NOSS 3-1 (C) 3.5 22:55:42 10° SW 23:01:42 88° SE 23:08:28 10° NE
NOAA 11 4.2 22:58:25 10° SSE 23:03:52 83° ENE 23:09:22 10° NNW
CZ-4C R/B 4.1 23:03:58 10° NW 23:09:57 34° NNE 23:16:34 10° E
Sich 1 3.2 23:06:26 10° SSW 23:10:50 76° W 23:15:14 10° N
Cosmos 1862 Rocket 3.6 23:08:11 10° N 23:12:32 63° ENE 23:16:24 12° SSE
Cosmos 1869 3.7 23:09:22 10° N 23:13:20 52° ENE 23:16:44 14° SSE
Tiangong 1 2.2 23:12:39 10° SW 23:15:16 25° S 23:17:08 15° SE
CZ-4 R/B 3.9 23:10:32 10° NNE 23:15:28 65° ESE 23:20:16 10° S
Cosmos 1271 Rocket 3.4 23:11:48 10° NNW 23:15:34 53° W 23:19:22 10° S
CARTOSAT-1 3.9 23:13:35 13° SE 23:17:18 53° ENE 23:21:31 10° N
Cosmos 1633 Rocket 3.4 23:14:02 10° SSW 23:18:23 68° WNW 23:22:45 10° N
Cosmos 2242 Rocket 4.3 23:15:04 10° NNW 23:19:27 54° W 23:23:52 10° S
Cosmos 1626 2.4 23:18:03 12° SSE 23:21:22 49° E 23:25:02 10° NNE
Iridium 2 3.7 23:20:38 10° S 23:24:28 89° ESE 23:28:22 10° N
USA 32 4.4 23:19:48 10° N 23:25:01 66° W 23:30:13 10° S
YAOGAN 6 4.1 23:22:28 10° SSW 23:25:45 32° W 23:29:01 10° NNW
Cosmos 192 4.4 23:21:36 10° NNW 23:26:33 83° WSW 23:30:44 14° SSE
Cosmos 2227 Rocket 2.2 23:21:40 10° SSW 23:27:15 63° ESE 23:32:52 10° NNE
IGS 5A 3.7 23:25:00 15° SSE 23:28:18 58° ENE 23:32:25 10° N
USA 245 4.2 23:29:00 10° SSW 23:30:53 21° W 23:32:41 10° NW
ERBS 2.3 23:27:51 10° SW 23:31:18 59° SE 23:34:44 10° ENE
CZ-4C R/B 3.1 23:28:47 15° S 23:31:38 75° W 23:35:09 10° NNW
DMSP B5D2-2 4.5 23:27:29 10° NNE 23:32:30 45° E 23:36:44 14° SSE
Cosmos 1703 3.7 23:29:43 10° SSW 23:33:36 62° WNW 23:37:30 10° N
Cosmos 1937 Rocket 3.7 23:29:23 10° SSW 23:34:35 74° WNW 23:39:48 10° NNE
USA 234 4.4 23:30:10 10° ENE 23:36:21 46° N 23:42:32 10° W
SL-16 R/B 2.3 23:34:52 10° NNW 23:40:36 80° ENE 23:45:02 17° SSE
Cosmos 990 Rocket 4.0 23:35:39 10° SSW 23:40:47 88° WNW 23:45:59 10° NNE
SAR-Lupe-2 3.5 23:41:18 20° SSE 23:43:42 77° ENE 23:47:18 10° NNW
Cosmos 2333 Rocket 3.1 23:39:18 10° NW 23:44:43 43° WSW 23:49:41 12° S
Cosmos 1241 Rocket 4.4 23:38:59 10° SSW 23:45:10 81° SE 23:51:30 10° NE
ARGOS 4.0 23:40:35 10° S 23:45:44 44° W 23:50:54 10° NNW
CZ-4B R/B 4.3 23:41:23 10° N 23:46:32 55° WNW 23:51:35 10° SW
Nadezhda 1 Rocket 4.4 23:46:31 10° NNW 23:52:29 58° W 23:58:23 11° S
Cosmos 2219 Rocket 3.7 23:48:08 10° NW 23:52:51 28° WSW 23:57:33 10° SSW
Cosmos 2297 Rocket 2.2 23:48:06 10° SSW 23:53:44 72° ESE 23:59:23 10° NNE
Okean 1-7 3.6 23:51:28 10° N 23:55:35 45° ENE 23:58:05 21° SE
